Home > Weather > Juneau > Past weeks

Flag for U.S.A. Weather for the Past 2 Weeks in Juneau, Alaska, U.S.A.

Now
41 °F

Overcast.


Feels Like: 35 °F
Forecast: 36 / 42 °F
Wind: 9 mph from East

Location: Juneau International Airport

Current Time: Feb 13, 2016 at 2:52:26 AM

Latest Report: Feb 13, 2016 at 1:53 AM


Visibility: 10 mi

Pressure: 29.73 "Hg

Humidity: 86%

Dew point: 37 °F

Location of JuneauLocation

Historic Weather in Juneau — Graph

°F

Juneau Temperature Yesterday

Maximum temperature yesterday: 45 °F (at 11:53 AM)
Minimum temperature yesterday: 39 °F (at 12:53 AM)
Average temperature yesterday: 42 °F

High & Low Weather Summary for the Past Weeks

 TemperatureHumidityPressure
High47 °F (Feb 8, 8:53 PM)100% (Jan 31, 5:53 AM)30.25 "Hg (Jan 31, 5:53 AM)
Low24 °F (Jan 31, 11:53 PM)63% (Feb 7, 4:53 AM)29.37 "Hg (Feb 4, 10:53 PM)
Average37 °F89%29.83 "Hg
* Reported Jan 29 1:53 AM — Feb 13 1:53 AM, Juneau, Weather by CustomWeather, © 2016

Note: Actual official high and low records may vary slightly from our data, if they occured in-between our weather recording intervals... More about our weather records

Advertising

Juneau Weather History for the Previous 24 Hours

 ConditionsComfort  
Time TempWeatherWind HumidityBarometerVisibility
1:53 AM
Sat, Feb 13
41 °FOvercast.9 mph86%29.73 "Hg10 mi
12:53 AM41 °FPassing clouds.12 mph86%29.74 "Hg10 mi
11:53 PM
Fri, Feb 12
41 °FPartly cloudy.10 mph89%29.75 "Hg10 mi
10:53 PM42 °FLight rain. Mostly cloudy.10 mph82%29.76 "Hg10 mi
9:53 PM42 °FOvercast.10 mph82%29.76 "Hg10 mi
8:53 PM42 °FMostly cloudy.10 mph82%29.76 "Hg10 mi
7:53 PM43 °FMostly cloudy.10 mph79%29.76 "Hg10 mi
6:53 PM44 °FMostly cloudy.16 mph76%29.76 "Hg10 mi
5:53 PM43 °FMostly cloudy.15 mph82%29.75 "Hg10 mi
4:53 PM43 °FLight rain. Mostly cloudy.12 mph82%29.75 "Hg10 mi
3:53 PM44 °FLight rain. Mostly cloudy.16 mph79%29.74 "Hg10 mi
2:53 PM44 °FMostly cloudy.16 mph82%29.75 "Hg10 mi
1:53 PM44 °FMostly cloudy.20 mph82%29.75 "Hg10 mi
12:53 PM45 °FCloudy.20 mph80%29.74 "Hg10 mi
11:53 AM45 °FCloudy.17 mph82%29.73 "Hg10 mi
10:53 AM43 °FCloudy.15 mph89%29.73 "Hg10 mi
9:53 AM43 °FMostly cloudy.16 mph86%29.71 "Hg10 mi
8:53 AM42 °FMostly cloudy.16 mph92%29.69 "Hg10 mi
7:53 AM41 °FLight rain. Mostly cloudy.14 mph96%29.67 "Hg10 mi
6:53 AM40 °FLight rain. Mostly cloudy.No wind97%29.64 "Hg10 mi
5:53 AM42 °FLight rain. Mostly cloudy.6 mph85%29.61 "Hg10 mi
4:53 AM40 °FLight rain. Mostly cloudy.3 mph93%29.62 "Hg10 mi
3:53 AM40 °FLight rain. Overcast.3 mph89%29.61 "Hg10 mi
2:53 AM40 °FMostly cloudy.6 mph86%29.60 "Hg10 mi
Weather by CustomWeather, © 2016

See weather overviewHow to use our weather pages